Location: Moscow
(55.7500°N, 37.5830°E)
Time: 05:18:18
(UTC+03:00)

Vanguard 1 - Pass Details

Date: 01 December 2021
Orbit: 652 x 3830 km, 34.2° (Epoch: 21 January)

Event Time Altitude Azimuth Distance (km) Brightness Sun altitude
Rises 00:18:08 0° 210° (SSW) 7,625 - -56.0°
Reaches altitude 10° 00:24:23 10° 200° (SSW) 6,822 - -56.0°
Maximum altitude 00:41:41 28° 152° (SSE) 5,386 - -55.8°
Exits shadow 00:52:12 19° 116° (ESE) 5,596 13.7 -55.5°
Drops below altitude 10° 00:56:49 10° 104° (ESE) 6,002 14.0 -55.3°
Sets 01:01:44 0° 94° (E) 6,614 14.4 -55.1°
